Other Public Products
Issued by NWS Grand Forks, ND

Home | Current Version | Previous Version | Text Only | Print | Product List | Glossary Off
Versions: 1 2 3 4 5 6 7 8 9 10 11 12 13 14 15 16 17 18 19 20 21 22 23 24 25 26 27 28 29 30 31 32 33 34 35 36 37 38 39 40 41 42 43 44 45 46 47 48 49 50

000
FPUS83 KFGF 050631
OPUFGF
PRAIRIE TO PINES WEATHER ROUNDUP
NATIONAL WEATHER SERVICE EASTERN NORTH DAKOTA/GRAND FORKS ND
100 AM CDT SUN JUL 05 2015

 **SATELLITE DATA USED TO AUGMENT SKY COVER AT AUTOMATED STATIONS**
 *****  WEATHER ACROSS EASTERN NORTH DAKOTA  *****

CITY           SKY/WX    TMP DP  RH WIND       PRES   REMARKS
GRAND FORKS    HVY RAIN  66  64  94 W15G33    29.78R FOG
6HR MIN TEMP:  75; 6HR MAX TEMP:  83; 6HR PCP: TRACE;

GRAND FORKS AF TSTM      66  64  94 W8G23     29.78R FOG
GRAND CITY NWS   N/A     68 N/A N/A W30         N/A
BUXTON         NOT AVBL
DEVILS LAKE    MOCLDY    66  61  82 CALM      29.75S
6HR MIN TEMP:  66; 6HR MAX TEMP:  84; 6HR PCP:  0.94;

FARGO          CLOUDY    74  65  73 S12       29.77R
6HR MIN TEMP:  74; 6HR MAX TEMP:  83;

WAHPETON ARPT  MOCLDY    70  63  78 S10       29.81R
$$

 *****  WEATHER ACROSS CENTRAL AND WESTERN NORTH DAKOTA  *****

CITY           SKY/WX    TMP DP  RH WIND       PRES   REMARKS
JAMESTOWN      PTCLDY    72  67  84 S7        29.75R
6HR MIN TEMP:  72; 6HR MAX TEMP:  82; 6HR PCP:  0.88;

BISMARCK       CLEAR     74  69  85 CALM      29.72R
6HR MIN TEMP:  72; 6HR MAX TEMP:  84;

MINOT          CLEAR     63  61  93 NW3       29.76R
6HR MIN TEMP:  63; 6HR MAX TEMP:  80; 6HR PCP:  0.07;

MINOT AFB      CLEAR     64  64 100 N6        29.75R
6HR MIN TEMP:  64; 6HR MAX TEMP:  76; 6HR PCP:  0.56;

GARRISON         N/A     65  62  90 CALM      29.74R
6HR MIN TEMP:  65; 6HR MAX TEMP:  79;

WILLISTON      CLEAR     68  62  81 N12       29.78S
6HR MIN TEMP:  68; 6HR MAX TEMP:  83;

DICKINSON      CLEAR     68  57  68 NE7       29.76F
6HR MIN TEMP:  68; 6HR MAX TEMP:  86; 6HR PCP: TRACE;

HETTINGER      CLEAR     62  60  93 CALM      29.78F FOG
6HR MIN TEMP:  62; 6HR MAX TEMP:  88;

$$

 *****  OTHER OBSERVATIONS NORTHEAST NORTH DAKOTA  *****

CITY           SKY/WX    TMP DP  RH WIND       PRES   REMARKS
WALHALLA       FAIR      64  64 100 MISG      29.74R
LANGDON        FAIR      64  63  94 NE7       29.74F
CAVALIER       FAIR      66  64  94 E5        29.72R
GRAFTON        FAIR      66  66 100 SE8       29.76R
CANDO          FAIR      63  61  94 S7        29.76F
FORT TOTTEN      N/A     66  63  90 E2        29.95S
ROLLA          FAIR      59  59 100 N5        29.79R
RUGBY          NOT AVBL
 ***** THE ABOVE OBSERVATIONS ARE NON NWS ARE NOT QUALITY
        CONTROLLED AND MAY MIS-REPORT RAIN FOR SNOW...
$$

 *****  OTHER OBSERVATIONS SOUTHEAST NORTH DAKOTA *****

CITY           SKY/WX    TMP DP  RH WIND       PRES   REMARKS
COOPERSTOWN    NOT AVBL
VALLEY CITY    FAIR      73  68  83 S10       29.77F
OAKES            N/A     72  72 100 S14G20    29.78R
GWINNER        FAIR      73  68  83 S10       29.79S
SHEYENNE NWR     N/A     72  67  83 S7        29.95
BUFFALO        NOT AVBL
WYNDMERE       NOT AVBL
 ***** THE ABOVE OBSERVATIONS ARE NON NWS ARE NOT QUALITY
       CONTROLLED AND MAY MIS-REPORT RAIN FOR SNOW...
$$

  *****  WEATHER ACROSS NORTHERN MINNESOTA  *****

CITY           SKY/WX    TMP DP  RH WIND       PRES   REMARKS
FLAG ISLAND    NOT AVBL
WARROAD        CLOUDY    64  61  88 E9        29.81F
ROSEAU         TSTM      64  57  77 N8        29.82R
HALLOCK        TSTM      66  64  94 NE14      29.74F
THF RVR FALLS  CLOUDY    72  64  78 S10       29.75F
6HR MIN TEMP:  72; 6HR MAX TEMP:  81;

HALSTAD        NOT AVBL
FOSSTON        MOCLDY    70  63  78 S10       29.79F
BAUDETTE       CLOUDY    62  60  93 SE5       29.84F
6HR MIN TEMP:  62; 6HR MAX TEMP:  78; 6HR PCP:  0.27;

WASKISH        LGT RAIN  70  63  78 NE10      29.83F
CROOKSTON      CLOUDY    75  64  69 S16G22    29.74F
$$
  *****  WEATHER ACROSS CENTRAL AND WEST MINNESOTA  *****

CITY           SKY/WX    TMP DP  RH WIND       PRES   REMARKS
BEMIDJI        MOCLDY    71  65  80 S8        29.83F
PARK RAPIDS    MOCLDY    71  64  78 S7        29.85R
6HR MIN TEMP:  71; 6HR MAX TEMP:  82;

WADENA         PTCLDY    68  63  83 S6        29.85R
DETROIT LAKES  PTCLDY    72  63  73 S8        29.84R
MOORHEAD       MOCLDY    72  64  78 S12       29.78S
FERGUS FALLS   PTCLDY    72  64  78 S10       29.81R
ELBOW LAKE     FAIR      69  64  85 S10       29.84R
6HR MIN TEMP:  69; 6HR MAX TEMP:  80;

MORRIS MN      PTCLDY    70  64  83 S9        29.84R HAZE
STAPLES        PTCLDY    68  63  83 S7        29.86R
WHEATON        MOCLDY    70  63  78 SE9       29.83R
$$
  *****  WEATHER ELSEWHERE ACROSS MINNESOTA  *****

CITY           SKY/WX    TMP DP  RH WIND       PRES   REMARKS
DULUTH         CLEAR     59  56  89 SE9       29.92F
6HR MIN TEMP:  59; 6HR MAX TEMP:  70;

INTRNTL FALLS  CLOUDY    65  62  90 S5        29.86R
6HR MIN TEMP:  64; 6HR MAX TEMP:  78; 6HR PCP:  0.05;

ELY            PTCLDY    61  52  72 S3        29.90S
CLOQUET        MOCLDY    57  55  94 CALM      29.91F FOG
BRAINERD       PTCLDY    70  64  81 S12       29.86F HAZE
6HR MIN TEMP:  68; 6HR MAX TEMP:  81;

HIBBING        MOCLDY    60  56  86 CALM      29.89F
6HR MIN TEMP:  60; 6HR MAX TEMP:  78;

ALEXANDRIA     PTCLDY    69  64  84 S9        29.85F
6HR MIN TEMP:  69; 6HR MAX TEMP:  80;

SAINT CLOUD    CLEAR     67  64  90 S7        29.89F FOG
6HR MIN TEMP:  66; 6HR MAX TEMP:  82;

MINNEAPOLIS    CLEAR     73  60  63 S10       29.94F
6HR MIN TEMP:  73; 6HR MAX TEMP:  83;

$$

  *****  WEATHER ACROSS SOUTH DAKOTA  *****

CITY           SKY/WX    TMP DP  RH WIND       PRES   REMARKS
SIOUX FALLS    PTCLDY    71  62  73 S14       29.88F
6HR MIN TEMP:  71; 6HR MAX TEMP:  79;

BROOKINGS      PTCLDY    70  63  78 S13G18    29.88F
WATERTOWN      PTCLDY    71  64  78 S9        29.84S
6HR MIN TEMP:  71; 6HR MAX TEMP:  81;

HURON          CLOUDY    73  66  78 SE17G25   29.78S
6HR MIN TEMP:  73; 6HR MAX TEMP:  82;

SISSETON         N/A     71  65  81 S9        29.78S
ABERDEEN       MOCLDY    70  67  90 E14       29.80R THUNDER
6HR MIN TEMP:  72; 6HR MAX TEMP:  84; 6HR PCP:  0.61;

MITCHELL       CLOUDY    72  66  81 S15       29.81F
PIERRE         PTCLDY    79  68  69 S10       29.72F
6HR MIN TEMP:  75; 6HR MAX TEMP:  87;

MOBRIDGE       CLEAR     74  71  91 SE7       29.70F
RAPID CITY     PTCLDY    64  60  87 NW6       29.82S FOG
6HR MIN TEMP:  66; 6HR MAX TEMP:  88;

$$

  *****  SOME WEATHER IN NEARBY STATES *****

CITY           SKY/WX    TMP DP  RH WIND       PRES   REMARKS
GLASGOW MT     PTCLDY    69  54  58 NE17      29.78R
6HR MIN TEMP:  69; 6HR MAX TEMP:  86;

GREAT FALLS MT PTCLDY    62  51  67 N17G33    29.94R
6HR MIN TEMP:  62; 6HR MAX TEMP:  89;

CHEYENNE WY    MOCLDY    69  51  52 CALM      30.05R
6HR MIN TEMP:  67; 6HR MAX TEMP:  82; 6HR PCP:  0.01;

SCOTTSBLUFF NE PTCLDY    70  62  76 E7        29.87F
6HR MIN TEMP:  69; 6HR MAX TEMP:  93; 6HR PCP:  0.04;

OMAHA NE       CLEAR     70  62  76 S9        29.96R
6HR MIN TEMP:  70; 6HR MAX TEMP:  81;

DES MOINES IA  CLEAR     68  60  75 S6        30.00R
6HR MIN TEMP:  68; 6HR MAX TEMP:  80;

DAVENPORT IA   CLEAR     62  58  86 S5        30.03S FOG
6HR MIN TEMP:  62; 6HR MAX TEMP:  77;

CHICAGO IL     PTCLDY    67  56  67 SE5       30.03S SMOKE
6HR MIN TEMP:  65; 6HR MAX TEMP:  79;

EAU CLAIRE WI  CLEAR     68  64  87 CALM      29.98R FOG
6HR MIN TEMP:  67; 6HR MAX TEMP:  80;

LA CROSSE WI   CLEAR     69  65  86 S3        29.99R
6HR MIN TEMP:  69; 6HR MAX TEMP:  81;

$$

  *****  SOME NATIONAL WEATHER *****

CITY           SKY/WX    TMP DP  RH WIND       PRES   REMARKS


USA.gov is the U.S. government's official web portal to all federal, state and local government web resources and services.